Total_Precipitation_Accumulation
1.02 1.14 1.21 1.49 1.74 1.92 2.10 2.25 2.35 2.42 2.64 2.80 2.78 2.69 2.52 2.29 2.18 2.15 2.03 1.89 1.81 1.88 1.88 1.74 1.63 1.63 1.54 1.39 1.30 1.21 1.20 1.18 1.15 1.21 1.12 0.99 0.93 0.87 0.80 0.70 0.63 0.59 0.55
0.88 1.01 1.07 1.20 1.42 1.65 1.90 2.15 2.27 2.36 2.36 2.41 2.63 2.78 2.84 2.66 2.36 2.19 2.09 1.99 1.90 1.90 1.88 1.84 1.78 1.71 1.67 1.61 1.55 1.49 1.40 1.36 1.37 1.40 1.42 1.27 1.11 0.92 0.82 0.80 0.75 0.68 0.64
0.73 0.83 0.93 1.13 1.27 1.41 1.67 1.99 2.17 2.31 2.32 2.34 2.59 2.81 2.98 2.82 2.48 2.11 1.94 1.94 1.96 1.97 1.89 1.88 1.91 1.85 1.76 1.66 1.62 1.57 1.52 1.47 1.44 1.45 1.56 1.42 1.16 0.91 0.79 0.73 0.71 0.70 0.68
0.62 0.68 0.81 0.98 1.10 1.26 1.45 1.63 1.85 2.04 2.24 2.33 2.39 2.42 2.52 2.52 2.26 2.13 2.03 2.01 2.01 2.01 1.97 1.93 1.93 1.91 1.84 1.68 1.64 1.58 1.51 1.50 1.47 1.44 1.39 1.29 1.11 1.03 0.92 0.77 0.70 0.70 0.69
0.65 0.65 0.78 0.96 1.02 1.12 1.37 1.51 1.59 1.80 2.03 2.19 2.24 2.37 2.34 2.35 2.39 2.34 2.24 2.14 2.07 2.02 1.96 1.92 1.91 1.83 1.78 1.74 1.77 1.70 1.65 1.57 1.49 1.43 1.39 1.39 1.22 1.05 1.03 0.90 0.75 0.75 0.73
0.72 0.76 0.86 0.97 1.00 1.06 1.24 1.45 1.46 1.55 1.72 1.97 2.19 2.24 2.18 2.19 2.23 2.20 2.14 2.11 2.09 2.06 1.97 1.87 1.82 1.78 1.77 1.76 1.79 1.83 1.78 1.73 1.66 1.56 1.44 1.45 1.43 1.26 1.19 1.13 0.93 0.85 0.78
0.68 0.76 0.86 0.87 0.92 1.01 1.12 1.29 1.38 1.46 1.54 1.71 1.90 2.08 2.15 2.14 2.14 2.15 2.10 1.99 1.90 1.81 1.79 1.80 1.75 1.69 1.64 1.67 1.71 1.78 1.79 1.74 1.71 1.64 1.55 1.50 1.44 1.34 1.33 1.30 1.15 1.02 0.89
0.56 0.60 0.71 0.80 0.89 0.97 1.01 1.05 1.11 1.18 1.25 1.33 1.46 1.65 1.87 1.94 1.88 1.90 1.88 1.83 1.74 1.71 1.70 1.70 1.70 1.70 1.67 1.64 1.68 1.71 1.73 1.71 1.66 1.56 1.49 1.44 1.37 1.37 1.40 1.38 1.41 1.37 1.15
0.57 0.58 0.64 0.68 0.77 0.88 0.98 0.96 0.95 0.99 1.08 1.11 1.18 1.28 1.48 1.62 1.66 1.70 1.66 1.57 1.54 1.58 1.58 1.57 1.58 1.60 1.62 1.61 1.64 1.67 1.65 1.65 1.63 1.57 1.48 1.37 1.25 1.23 1.26 1.29 1.38 1.53 1.46
0.58 0.55 0.60 0.62 0.67 0.76 0.87 0.89 0.89 0.90 1.03 1.07 1.08 1.12 1.20 1.30 1.45 1.54 1.44 1.38 1.38 1.40 1.42 1.41 1.40 1.42 1.44 1.45 1.50 1.52 1.50 1.49 1.47 1.46 1.47 1.42 1.31 1.25 1.27 1.32 1.39 1.48 1.54
0.59 0.61 0.64 0.64 0.68 0.76 0.78 0.80 0.86 0.89 0.99 1.03 0.99 0.97 1.01 1.06 1.13 1.21 1.24 1.20 1.22 1.22 1.22 1.22 1.23 1.22 1.24 1.27 1.31 1.30 1.32 1.38 1.38 1.38 1.41 1.42 1.39 1.38 1.36 1.39 1.45 1.52 1.60
0.54 0.57 0.58 0.61 0.67 0.73 0.72 0.69 0.75 0.81 0.92 0.95 0.88 0.86 0.89 0.94 0.97 0.99 1.04 1.05 1.07 1.08 1.11 1.13 1.11 1.08 1.05 1.09 1.12 1.14 1.15 1.19 1.23 1.29 1.34 1.38 1.39 1.43 1.45 1.48 1.50 1.50 1.51
0.40 0.42 0.44 0.47 0.51 0.53 0.56 0.62 0.64 0.63 0.69 0.72 0.68 0.67 0.68 0.73 0.81 0.84 0.83 0.86 0.92 0.95 0.97 1.01 1.02 1.01 0.98 1.01 1.02 1.01 1.02 1.04 1.07 1.12 1.18 1.20 1.26 1.32 1.35 1.40 1.44 1.41 1.39
0.31 0.33 0.35 0.35 0.40 0.43 0.46 0.52 0.52 0.52 0.58 0.59 0.56 0.56 0.57 0.58 0.63 0.68 0.67 0.67 0.71 0.77 0.81 0.86 0.90 0.91 0.92 0.95 1.00 1.03 1.02 0.99 0.99 1.00 1.05 1.09 1.13 1.17 1.23 1.31 1.35 1.34 1.33
0.26 0.29 0.31 0.32 0.35 0.38 0.41 0.45 0.48 0.54 0.60 0.62 0.61 0.56 0.53 0.53 0.56 0.61 0.62 0.60 0.60 0.60 0.61 0.67 0.75 0.81 0.83 0.87 0.91 0.94 0.97 0.98 0.98 1.00 1.04 1.11 1.24 1.26 1.21 1.19 1.18 1.19 1.25
0.22 0.23 0.25 0.27 0.30 0.36 0.42 0.47 0.52 0.62 0.66 0.68 0.64 0.60 0.55 0.52 0.49 0.49 0.50 0.50 0.51 0.52 0.55 0.59 0.62 0.69 0.76 0.96 0.95 0.87 0.86 0.95 1.00 1.02 1.01 1.05 1.17 1.16 1.15 1.11 1.08 1.10 1.18
0.20 0.21 0.22 0.25 0.28 0.38 0.47 0.55 0.60 0.68 0.70 0.72 0.66 0.60 0.55 0.51 0.47 0.44 0.45 0.47 0.49 0.51 0.55 0.58 0.62 0.67 0.81 1.00 0.97 0.99 0.89 0.91 0.96 0.99 0.97 0.93 0.89 0.94 0.83 0.90 0.98 1.00 1.00
0.16 0.17 0.18 0.20 0.22 0.28 0.40 0.49 0.57 0.69 0.73 0.73 0.72 0.69 0.67 0.66 0.67 0.66 0.66 0.66 0.64 0.66 0.71 0.75 0.77 0.81 0.92 1.01 0.93 0.91 0.82 0.84 0.85 0.83 0.82 0.77 0.72 0.71 0.73 0.75 0.81 0.74 0.70
0.15 0.15 0.15 0.16 0.16 0.20 0.29 0.38 0.51 0.67 0.81 0.88 0.88 0.89 0.92 0.96 0.99 1.00 0.99 0.98 0.97 0.96 0.93 0.89 0.84 0.80 0.81 0.85 0.81 0.77 0.70 0.71 0.69 0.65 0.64 0.64 0.61 0.70 0.80 0.74 0.70 0.64 0.61
0.19 0.17 0.17 0.18 0.20 0.24 0.30 0.44 0.62 0.78 0.89 0.94 0.98 1.02 1.09 1.15 1.11 1.08 1.04 0.98 0.93 0.92 0.90 0.87 0.81 0.73 0.66 0.64 0.61 0.59 0.54 0.53 0.50 0.47 0.47 0.54 0.56 0.68 0.77 0.69 0.67 0.64 0.53
0.27 0.29 0.29 0.31 0.33 0.36 0.44 0.59 0.70 0.81 0.86 0.87 0.89 0.92 0.93 0.95 0.92 0.88 0.83 0.79 0.74 0.68 0.63 0.59 0.56 0.50 0.47 0.47 0.46 0.48 0.44 0.45 0.46 0.45 0.43 0.44 0.57 0.63 0.68 0.69 0.61 0.61 0.62
0.30 0.37 0.43 0.46 0.47 0.49 0.57 0.65 0.66 0.66 0.64 0.62 0.62 0.61 0.57 0.54 0.55 0.56 0.56 0.53 0.52 0.49 0.45 0.41 0.39 0.36 0.35 0.37 0.39 0.45 0.48 0.51 0.48 0.45 0.42 0.45 0.60 0.66 0.66 0.63 0.62 0.69 0.73
0.16 0.20 0.27 0.32 0.32 0.33 0.37 0.41 0.38 0.33 0.29 0.26 0.27 0.28 0.27 0.27 0.29 0.31 0.33 0.34 0.35 0.36 0.36 0.34 0.34 0.32 0.31 0.34 0.40 0.44 0.51 0.57 0.53 0.47 0.51 0.55 0.60 0.63 0.60 0.60 0.63 0.65 0.61
0.11 0.11 0.12 0.14 0.14 0.15 0.17 0.19 0.16 0.13 0.12 0.13 0.14 0.16 0.19 0.21 0.23 0.27 0.29 0.31 0.31 0.31 0.32 0.33 0.32 0.31 0.30 0.30 0.34 0.40 0.47 0.56 0.58 0.56 0.56 0.59 0.59 0.59 0.57 0.57 0.58 0.56 0.55
0.12 0.12 0.12 0.12 0.13 0.13 0.13 0.13 0.13 0.12 0.12 0.12 0.13 0.15 0.17 0.20 0.21 0.23 0.27 0.32 0.32 0.34 0.38 0.37 0.35 0.37 0.36 0.32 0.42 0.51 0.53 0.57 0.62 0.67 0.65 0.60 0.55 0.53 0.52 0.51 0.50 0.52 0.55
0.15 0.14 0.15 0.15 0.17 0.18 0.19 0.19 0.19 0.17 0.17 0.17 0.18 0.20 0.22 0.22 0.23 0.24 0.25 0.29 0.33 0.36 0.38 0.39 0.39 0.36 0.38 0.42 0.49 0.54 0.58 0.64 0.73 0.79 0.70 0.57 0.51 0.48 0.48 0.50 0.51 0.53 0.55